Effective Sunday, March 17, 2024, the National Weather Service National Data Buoy Center will discontinue its Dial-A-Buoy Interactive Voice Response system. For more information, see Service Change Notice 24-06 (PDF).

Station SLVM5 - Silver Bay, MN Image indicating link to RSS feed of recent meteorological observations for station SLVM5


Conditions at SLVM5 as of
(12:40 am CST)
0640 GMT on 03/02/2024:
     

Click on the graph icon in the table below to see a time series plot of the last five days of that observation.

5-day plot - Wind Speed Wind Speed (WSPD): 0.0 kts
5-day plot - Wind Gust Wind Gust (GST): 0.0 kts
5-day plot - Atmospheric Pressure Atmospheric Pressure (PRES):29.81 in
5-day plot - Air Temperature Air Temperature (ATMP): 34.9 °F
5-day plot - Wind Speed at 10 Meters Wind Speed at 10 meters (WSPD10M): 0.0 kts
5-day plot - Wind Speed at 20 Meters Wind Speed at 20 meters (WSPD20M): 0.0 kts
5-day plot -  Wind Speed, Wind Gust and Atmospheric Pressure Combined plot of Wind Speed, Gust, and Air Pressure
Previous observations
TIME
(CST)
5-day plot - Wind Direction
WDIR
 
5-day plot - Wind Speed
WSPD
kts
5-day plot - Wind Gust
GST
kts
5-day plot - Wave Height
WVHT
ft
5-day plot - Dominant Wave Period
DPD
sec
5-day plot - Average Wave Period
APD
sec
5-day plot - Mean Wave Direction
MWD
 
5-day plot - Atmospheric Pressure
PRES
in
5-day plot - Pressure Tendency
PTDY
in
5-day plot - Air Temperature
ATMP
°F
5-day plot - Water Temperature
WTMP
°F
5-day plot - Dew Point
DEWP
°F
5-day plot - Salinity
SAL
psu
5-day plot - Visibility
VIS
nmi
5-day plot - Tide (above MLLW)
TIDE
ft
2024-03-02 12:30 am- 0.0 0.0----29.81- 34.5-----
2024-03-02 12:20 am- 0.0 0.0----29.81- 35.4-----
2024-03-02 12:10 am- 0.0 0.0----29.81- 36.0-----
2024-03-02 12:00 am- 0.0 0.0----29.81+0.01 35.6-----
2024-03-01 11:50 pm- 0.0 1.9----29.81- 34.7-----
2024-03-01 11:40 pm- 0.0 1.9----29.81- 35.2-----
2024-03-01 11:30 pmNNE 1.0 1.9----29.81- 35.6-----
2024-03-01 11:20 pmNNW 1.9 1.9----29.81- 34.5-----
2024-03-01 11:10 pm- 0.0 0.0----29.81- 35.1-----
2024-03-01 11:00 pm- 0.0 0.0----29.81+0.02 35.2-----
2024-03-01 10:50 pm- 0.0 1.0----29.81- 36.1-----
2024-03-01 10:40 pmNNW 1.9 1.9----29.81- 35.2-----
2024-03-01 10:30 pm- 0.0 0.0----29.81- 35.8-----
2024-03-01 10:20 pm- 0.0 0.0----29.80- 35.8-----
2024-03-01 10:10 pm- 0.0 1.9----29.80- 35.6-----
2024-03-01 10:00 pm NE 1.0 2.9----29.80+0.03 35.4-----
2024-03-01 09:50 pm N 1.9 2.9----29.80- 35.4-----
2024-03-01 09:40 pmNNE 1.9 2.9----29.80- 35.6-----
2024-03-01 09:30 pm N 2.9 4.1----29.80- 35.4-----
2024-03-01 09:20 pm N 2.9 4.1----29.80- 36.5-----
2024-03-01 09:10 pmNNE 4.1 5.1----29.80- 36.3-----
2024-03-01 09:00 pmNNE 4.1 6.0----29.80- 36.5-----
2024-03-01 08:50 pmNNE 4.1 5.1----29.79- 36.3-----
2024-03-01 08:40 pmNNE 4.1 5.1----29.79- 35.4-----
2024-03-01 08:30 pmNNE 2.9 4.1----29.79- 35.2-----
2024-03-01 08:20 pm NE 1.9 2.9----29.79- 34.5-----
2024-03-01 08:10 pmENE 1.9 2.9----29.79- 35.4-----
2024-03-01 08:00 pm NE 1.9 2.9----29.79+0.06 35.2-----
2024-03-01 07:50 pm- 0.0 1.9----29.79- 34.9-----
2024-03-01 07:40 pm N 1.9 2.9----29.79- 35.4-----
2024-03-01 07:30 pm NE 2.9 4.1----29.78- 35.6-----
2024-03-01 07:20 pm NE 1.9 4.1----29.78- 35.4-----
2024-03-01 07:10 pm NE 1.9 4.1----29.77- 36.1-----
2024-03-01 07:00 pmNNE 2.9 4.1----29.77+0.03 36.1-----
2024-03-01 06:50 pmNNE 1.9 4.1----29.77- 36.7-----
2024-03-01 06:40 pm NE 4.1 5.1----29.77- 36.5-----
2024-03-01 06:30 pmNNE 2.9 4.1----29.77- 36.1-----
2024-03-01 06:20 pmNNE 4.1 5.1----29.76- 35.6-----
2024-03-01 06:10 pm NE 2.9 6.0----29.75- 36.7-----
2024-03-01 06:00 pmENE 5.1 12.0----29.75- 36.9-----
2024-03-01 05:50 pm NE 5.1 5.1----29.75- 37.2-----
2024-03-01 05:40 pmNNE 5.1 8.9----29.75- 37.2-----
2024-03-01 05:30 pm NE 7.0 8.9----29.74- 37.0-----
2024-03-01 05:20 pm NE 5.1 8.9----29.74- 37.4-----
2024-03-01 05:10 pm NE 6.0 9.9----29.73- 37.4-----
2024-03-01 05:00 pm NE 5.1 8.0----29.73-0.02 37.4-----
2024-03-01 04:50 pm NE 7.0 12.0----29.73- 37.6-----
2024-03-01 04:40 pm NE 6.0 9.9----29.74- 38.5-----
2024-03-01 04:30 pmNNE 4.1 11.1----29.74- 38.3-----
2024-03-01 04:20 pm NE 6.0 11.1----29.74- 39.2-----
2024-03-01 04:10 pm NE 4.1 11.1----29.74- 38.7-----
2024-03-01 04:00 pm NE 7.0 14.0----29.74- 38.7-----
2024-03-01 03:50 pm NE 4.1 14.0----29.74- 39.9-----
2024-03-01 03:40 pmENE 8.9 12.0----29.74- 40.1-----
2024-03-01 03:30 pmENE 8.9 13.0----29.74- 39.7-----
2024-03-01 03:20 pm NE 7.0 12.0----29.74- 40.1-----
2024-03-01 03:10 pm NE 6.0 13.0----29.74- 41.9-----
2024-03-01 03:00 pm NE 8.0 14.0----29.73- 41.4-----
2024-03-01 02:50 pmENE 9.9 13.0----29.73- 41.4-----
2024-03-01 02:40 pm NE 5.1 13.0----29.74- 42.4-----
2024-03-01 02:30 pmENE 11.1 14.0----29.74- 39.9-----
2024-03-01 02:20 pmENE 8.0 12.0----29.74- 40.6-----
2024-03-01 02:10 pmENE 7.0 9.9----29.75- 40.3-----
2024-03-01 02:00 pm NE 4.1 6.0----29.75-0.05 43.5-----
2024-03-01 01:40 pm NE 4.1 8.9----29.75- 43.3-----
2024-03-01 01:30 pmENE 7.0 8.9----29.75- 41.5-----
2024-03-01 01:20 pmENE 7.0 8.9----29.76- 40.5-----
2024-03-01 01:10 pmENE 6.0 8.9----29.77- 40.5-----
2024-03-01 01:01 pmENE 6.0 8.9----29.77- 39.6-----
2024-03-01 01:00 pmENE 6.0 7.0----29.78-0.04 39.6-----
2024-03-01 12:50 pm- 0.0 7.0----29.78- 39.4-----
2024-03-01 12:40 pm- 0.0 8.9----29.78- 40.5-----
2024-03-01 12:30 pmENE 6.0 8.0----29.78- 40.1-----
2024-03-01 12:20 pm- 0.0 8.9----29.79- 40.1-----
2024-03-01 12:10 pm- 0.0 7.0----29.79- 38.3-----
2024-03-01 12:00 pm- 0.0 11.1----29.79- 38.1-----
2024-03-01 11:50 am- 0.0 8.0----29.80- 37.6-----
2024-03-01 11:40 amENE 6.0 8.0----29.80- 38.5-----
2024-03-01 11:30 amENE 7.0 8.0----29.80- 37.4-----
2024-03-01 11:20 amENE 7.0 8.9----29.80- 36.7-----
2024-03-01 11:10 amENE 8.0 11.1----29.80- 38.3-----
2024-03-01 11:00 amENE 9.9 14.0----29.80- 38.7-----
2024-03-01 10:50 amENE 8.0 12.0----29.80- 39.0-----
2024-03-01 10:40 amENE 8.0 12.0----29.81- 39.2-----
2024-03-01 10:30 amENE 8.9 13.0----29.81- 38.8-----
2024-03-01 10:20 am NE 6.0 13.0----29.82- 38.5-----
2024-03-01 10:10 am NE 8.0 14.0----29.82- 37.9-----
2024-03-01 10:00 am NE 8.0 18.1----29.82- 37.4-----
2024-03-01 09:50 am NE 9.9 15.0----29.82- 36.5-----
2024-03-01 09:40 am NE 8.0 15.0----29.82- 36.3-----
2024-03-01 09:30 am NE 9.9 15.0----29.82- 36.1-----
2024-03-01 09:20 am NE 7.0 15.0----29.83- 36.0-----
2024-03-01 09:10 am NE 8.0 13.0----29.83- 35.8-----
2024-03-01 09:00 am NE 6.0 11.1----29.83-0.04 36.1-----
2024-03-01 08:50 am NE 7.0 11.1----29.84- 35.6-----
2024-03-01 08:40 am NE 6.0 11.1----29.84- 35.8-----
2024-03-01 08:30 am NE 6.0 12.0----29.84- 35.1-----
2024-03-01 08:20 am NE 6.0 11.1----29.85- 34.3-----
2024-03-01 08:10 am NE 5.1 9.9----29.85- 34.0-----
2024-03-01 08:00 am NE 6.0 9.9----29.85-0.04 33.4-----
2024-03-01 07:50 am NE 7.0 9.9----29.86- 33.3-----
2024-03-01 07:40 am NE 8.0 12.0----29.86- 32.4-----
2024-03-01 07:30 am NE 4.1 9.9----29.87- 31.8-----
2024-03-01 07:20 amNNE 6.0 11.1----29.87- 30.7-----
2024-03-01 07:10 amNNE 7.0 9.9----29.87- 30.4-----
2024-03-01 07:00 amNNE 8.0 14.0----29.87-0.03 30.6-----
2024-03-01 06:50 am NE 12.0 18.1----29.87- 30.2-----
2024-03-01 06:40 amNNE 6.0 8.0----29.88- 30.0-----
2024-03-01 06:30 amNNE 4.1 8.0----29.88- 29.8-----
2024-03-01 06:20 amNNE 7.0 8.9----29.87- 29.8-----
2024-03-01 06:10 amNNE 6.0 9.9----29.87- 30.2-----
2024-03-01 06:02 amNNE 6.0 12.0----29.87- 31.1-----
2024-03-01 06:00 am NE 7.0 12.0----29.87-0.04 31.1-----
2024-03-01 05:40 amNNE 7.0 12.0----29.88- 30.6-----
2024-03-01 05:30 am N 2.9 12.0----29.88- 30.2-----
2024-03-01 05:20 amNNE 5.1 8.0----29.89- 29.7-----
2024-03-01 05:10 amNNE 6.0 11.1----29.89- 29.7-----
2024-03-01 05:02 amNNE 6.0 12.0----29.89- 30.2-----
2024-03-01 05:00 amNNE 6.0 8.9----29.89-0.05 30.2-----
2024-03-01 04:50 amNNE 6.0 11.1----29.89- 30.9-----
2024-03-01 04:40 amENE 7.0 12.0----29.90- 31.8-----
2024-03-01 04:30 amENE 8.9 12.0----29.90- 31.5-----
2024-03-01 04:20 amENE 6.0 11.1----29.90- 31.3-----
2024-03-01 04:10 amENE 4.1 13.0----29.91- 30.2-----
2024-03-01 04:01 am NE 9.9 15.9----29.90- 31.3-----
2024-03-01 04:00 am NE 9.9 14.0----29.90-0.06 31.3-----
2024-03-01 03:50 am NE 7.0 11.1----29.91- 31.3-----
2024-03-01 03:40 amENE 8.9 12.0----29.91- 31.1-----
2024-03-01 03:30 amENE 8.9 12.0----29.91- 31.1-----
2024-03-01 03:20 amENE 9.9 14.0----29.91- 31.1-----
2024-03-01 03:10 amENE 12.0 15.9----29.91- 30.9-----
2024-03-01 03:01 amENE 8.9 15.9----29.92- 31.1-----
2024-03-01 03:00 amENE 8.9 13.0----29.91-0.09 31.1-----
2024-03-01 02:50 amENE 11.1 14.0----29.92- 31.1-----
2024-03-01 02:40 amENE 9.9 13.0----29.92- 31.3-----
2024-03-01 02:30 amENE 11.1 15.9----29.93- 31.3-----
2024-03-01 02:20 amENE 12.0 15.9----29.93- 30.7-----
2024-03-01 02:10 am E 9.9 14.0----29.97- 31.1-----
2024-03-01 02:00 amENE 11.1 19.0----29.94- 30.2-----
2024-03-01 01:50 amENE 11.1 15.0----29.95- 30.2-----
2024-03-01 01:40 am NE 11.1 15.9----29.95- 30.0-----
2024-03-01 01:30 amENE 13.0 18.1----29.95- 30.0-----
2024-03-01 01:20 amENE 14.0 19.0----29.95- 30.2-----
2024-03-01 01:10 amENE 9.9 19.0----29.96- 29.7-----
2024-03-01 01:00 amENE 15.9 21.0----29.96- 29.5-----
2024-03-01 12:50 amENE 9.9 20.0----29.97- 29.1-----